COSMOS 1627

Satellite information

Favourite Embed

Satellite Type and Status

PAYLOADIN ORBIT

Key statistics

Satellite COSMOS 1627 at a glance.

Uptime

14828

Days in orbit

Revolutions

≈ 13.7

Per day

Orbit

LEO

Low Earth Orbit

Inclination

82.9

Latest

Satellite identification and parameters

Extended collection of information and parameters for COSMOS 1627.

Object identification

Identified? True

Debris? False

Object name: COSMOS 1627

International designator: 1985-011A

Object number (NORAD): 15505

Object ID (CCSDS): 15505

Country: COMMONWEALTH OF INDEPENDENT STATES (CIS)

Current information (Y/N): Y

RCS size: LARGE

Orbital parameters

Period: 104.76 minutes

Inclination: 82.9166 deg

SMA: 7361.35 km

Apoapsis: 1014.998 km

Periapsis: 951.433 km

RAAN: 257.6501 deg

Eccentricy: 0.00431747

Argument of periapsis: 59.4427 deg

Mean anomaly: 115.2485 deg

Mean motion: 13.74569025 rev/day

Mean motion (dot): 0.00000095 rev/day2

B* drag term: 0.000083171605 1/REarth

Two-line elements (TLE)

Creation date: Sept. 7, 2025, 3:09 a.m.

Reference frame: TEME

Reference center: EARTH

Epoch: Sept. 6, 2025, 6:03 p.m. UTC

TLE line 0: 0 COSMOS 1627

TLE line 1: 1 15505U 85011A 25249.75227509 .00000095 00000-0 83172-4 0 9999

TLE line 2: 2 15505 82.9166 257.6501 0043175 59.4427 115.2485 13.74569025 36161

Live tracking on map

Real-time ground track for satellite COSMOS 1627.

In-orbit conjunctions

A list of the most updated potential collisions computed for object COSMOS 1627.

Target Orbit TCA Probability of collision Miss distance Type
DELTA 1 DEB SSO 2025-05-11 14:14:10 0.002199841 90.0 (m) DEBRIS

Associated space launch

Navigation satellite providing location information for the Tsiklon-B navigation system

COSMOS 1627 was lifted into orbit during the mission ‘Kosmos-3M | Parus 48’, on board a Kosmos-3M space rocket.

The launch took place on Feb. 1, 1985, 7:36 p.m. from 132/2.

For more information about the launch, click the button.

Launch to space Kosmos-3M | Parus 48
Kosmos-3M | Parus 48

Agency: N/A

Status: Launch Successful

Launch date: Feb. 1, 1985, 7:36 p.m. UTC

Rocket: Kosmos-3M

Launch pad: 132/2

Location: Plesetsk Cosmodrome, Russian Federation

...

Latest news about this satellite

There are no fresh news available about this satellite. Check back as we update our databases every day.


Newsletter sign-up

Weekly statistics, charts and insights to help you stay on top of the space industry.